Temperature
17 17 17 17 17 17 17 17 16 16 16 17 17 17 17 17 17 17 17 17 17 17 17 16 16 16 16 16 16 16 16 16 16 15 15 15 15 15
17 17 17 17 17 17 17 17 16 16 16 16 16 17 17 17 17 17 17 17 17 16 16 16 16 16 16 16 16 16 16 16 15 15 15 15 15 15
17 17 17 17 17 17 16 16 16 16 16 16 16 16 16 16 16 16 16 16 16 16 16 16 16 16 16 16 16 16 16 15 15 15 15 15 15 14
17 17 17 16 16 16 16 16 16 16 16 16 16 16 16 16 16 16 16 16 16 16 16 16 16 16 16 16 16 15 15 15 15 15 15 15 14 14
17 17 16 16 16 16 16 16 16 16 16 16 16 16 16 16 16 16 16 16 16 16 16 16 16 16 15 15 15 15 15 15 15 15 15 14 14 14
16 16 16 16 16 16 16 16 16 16 15 15 15 15 15 15 15 15 15 15 15 15 15 15 15 15 15 15 15 15 15 15 15 15 14 14 14 14
16 16 16 16 16 16 16 16 15 15 15 15 15 15 15 15 15 15 15 15 15 15 15 15 15 15 15 15 15 15 15 14 14 14 14 14 14 14
16 16 16 16 16 16 15 15 15 15 15 15 15 15 15 15 15 14 14 14 14 14 14 14 14 14 14 14 14 14 14 14 14 14 14 14 14 14
16 16 16 16 15 15 15 15 15 15 15 15 15 15 15 14 14 14 14 14 14 14 14 14 14 14 14 14 14 14 14 14 14 14 14 13 13 13
16 16 15 15 15 15 15 15 15 15 15 15 14 14 14 14 14 14 13 13 13 13 13 13 13 14 14 14 14 13 13 13 13 13 13 13 13 13
15 15 15 15 15 14 14 15 15 14 14 14 14 14 13 13 13 13 13 13 13 13 13 13 13 13 13 13 13 13 13 13 13 13 13 13 13 13
15 15 14 14 15 14 14 14 14 14 14 13 13 13 13 13 13 13 13 12 12 12 13 12 12 12 12 12 13 13 13 13 13 13 12 12 12 12
14 14 14 14 14 14 14 14 14 13 13 13 13 13 13 13 13 13 12 12 12 12 12 12 12 12 11 11 12 12 12 12 12 12 12 12 12 12
14 14 14 14 14 14 13 13 13 13 13 13 13 13 13 13 12 12 12 12 12 12 12 11 11 11 11 11 11 11 11 11 12 12 12 11 11 11
14 14 14 14 13 13 13 13 13 12 12 12 12 12 12 12 12 12 12 12 12 11 11 11 11 11 11 11 11 11 11 11 11 11 11 11 11 11
13 13 13 13 13 13 13 13 12 12 12 12 12 12 12 11 11 11 11 11 11 11 11 11 11 10 10 10 10 10 10 10 10 10 11 11 11 11
13 13 13 13 12 12 12 12 12 12 12 12 12 11 11 11 11 11 11 11 11 11 11 11 10 10 10 10 10 10 10 10 10 10 10 10 10 10
12 12 12 12 12 12 12 12 12 12 12 11 11 11 11 11 11 11 10 10 10 10 10 10 10 10 10 9 9 9 9 9 9 9 9 9 10 10
12 12 12 12 12 12 11 11 11 11 11 11 11 10 10 10 10 10 10 10 10 10 10 9 9 9 9 9 9 9 9 9 9 9 9 9 9 10
11 11 11 11 11 11 11 11 11 11 10 10 10 10 10 10 10 10 9 9 9 9 9 9 9 9 9 8 8 8 8 8 8 8 9 9 9 9
11 11 11 11 11 11 10 10 10 10 10 10 10 10 9 9 9 9 9 9 9 9 9 9 9 8 8 8 8 8 8 8 8 8 8 8 8 8
10 10 10 10 10 10 10 10 9 9 9 9 9 9 9 9 9 9 9 8 8 8 8 8 8 8 8 8 8 8 8 8 8 8 8 8 7 7
10 10 10 9 9 9 9 9 9 9 9 9 9 9 9 8 8 8 8 8 8 8 8 8 8 7 7 7 7 7 7 7 7 7 7 7 7 7
Wind_Speed
4 4 3 3 3 4 4 3 3 3 4 3 2 2 3 4 5 4 4 5 6 6 6 7 6 6 6 7 7 7 7 7 7 8 8 8 8 9
3 3 3 3 3 3 3 3 4 4 4 3 3 3 3 4 4 4 5 5 5 6 6 6 6 6 6 6 6 6 7 7 7 8 8 8 8 8
4 4 4 3 3 2 2 3 3 3 5 4 3 3 3 4 3 3 4 4 4 5 6 6 5 6 6 6 6 6 6 7 7 8 8 8 8 8
5 4 4 3 3 3 3 4 4 5 4 5 3 2 3 3 3 3 3 3 4 5 5 5 5 5 5 5 5 6 6 6 7 7 7 8 8 8
5 5 5 4 4 4 4 4 4 4 4 4 4 2 2 2 2 3 3 3 3 4 4 5 5 5 5 5 5 5 5 6 7 7 7 8 8 8
5 5 5 5 5 4 4 4 3 3 2 3 3 3 2 2 2 2 3 2 3 3 3 4 4 5 5 5 6 6 6 6 6 6 7 7 8 8
5 5 5 5 6 5 4 4 3 3 3 3 3 2 2 2 2 2 3 3 3 2 3 3 3 3 3 5 6 6 6 6 6 7 7 7 7 8
5 4 4 4 5 5 5 5 5 4 4 3 3 4 4 3 3 2 2 2 3 1 2 3 2 3 3 3 5 6 7 7 7 8 8 8 8 8
4 4 3 3 4 3 3 3 3 4 6 5 5 5 5 4 3 3 3 4 4 3 2 3 2 4 4 5 6 7 7 7 8 8 8 8 8 8
4 5 4 4 3 3 2 2 2 2 3 4 4 5 5 4 4 4 4 4 4 2 2 3 3 3 4 5 6 7 7 7 8 8 8 8 8 8
4 4 4 4 4 4 3 2 2 2 2 2 4 4 5 5 4 3 2 2 3 3 2 3 3 3 3 4 4 5 6 7 7 7 7 7 7 6
2 2 4 4 4 4 3 3 3 4 3 3 2 3 3 3 3 4 4 3 3 3 2 2 2 2 2 2 2 3 4 5 6 6 6 5 5 3
3 3 2 3 3 3 3 3 5 4 2 2 2 2 2 2 2 3 4 4 4 4 2 3 3 2 2 3 2 2 3 3 3 3 4 5 5 4
4 3 3 4 3 3 3 4 4 2 1 1 2 2 3 3 3 3 3 4 5 5 4 3 3 3 3 4 4 3 3 2 2 3 3 3 5 6
3 4 4 3 3 2 3 3 3 2 1 1 2 3 3 4 3 2 2 2 3 3 3 3 3 3 3 4 4 4 3 3 2 3 3 3 3 3
2 3 3 2 2 2 1 2 2 2 2 3 3 3 3 2 2 2 2 2 2 2 2 2 3 3 3 4 4 4 4 3 3 3 3 4 4 4
3 1 1 1 1 1 1 1 1 1 2 2 3 3 3 2 2 2 2 2 2 3 3 2 2 2 3 4 4 4 4 4 4 3 3 4 4 4
4 2 2 2 3 2 2 2 2 2 2 2 2 3 3 3 2 2 2 2 3 3 3 2 2 2 2 2 4 4 4 4 4 4 3 4 5 4
3 3 3 3 3 3 3 3 3 3 2 2 3 3 3 3 3 3 2 2 2 3 3 2 2 2 3 5 3 3 4 4 4 4 4 4 5 5
3 3 3 3 3 3 3 3 3 3 2 3 3 3 3 3 3 3 3 3 3 3 3 3 3 3 4 5 4 4 5 5 4 4 4 4 5 5
3 3 3 3 3 3 3 3 3 3 3 3 3 3 3 3 3 3 3 4 3 3 3 4 4 5 4 3 3 4 3 4 5 4 4 4 4 4
3 3 3 3 3 3 3 3 3 3 3 3 4 3 3 4 4 4 4 3 4 4 4 4 3 2 2 3 4 5 4 4 4 4 4 4 4 4
3 3 3 3 3 2 2 3 3 4 4 4 4 4 4 4 4 4 4 4 4 3 3 3 2 2 3 4 4 4 4 4 4 4 4 5 5 6
Wind_Direction
226 222 226 235 225 223 215 206 213 276 289 270 271 280 281 281 274 259 251 257 255 249 245 249 252 255 257 257 253 250 251 254 252 250 250 253 257 262
222 223 234 242 236 228 220 218 211 222 262 266 261 280 284 284 280 263 260 262 256 248 244 249 254 255 257 257 253 249 247 247 245 247 248 250 253 258
231 222 233 232 235 235 227 225 220 213 249 273 265 277 277 283 293 279 267 263 266 258 253 252 254 256 256 253 251 250 250 247 246 247 248 249 249 251
232 227 239 233 233 236 229 235 233 222 229 264 277 278 272 280 281 280 283 281 278 275 262 254 253 254 256 251 252 255 255 252 251 251 251 249 246 247
227 226 232 225 238 239 232 240 245 241 229 245 273 279 277 285 290 289 293 291 292 285 271 263 260 258 256 251 252 253 252 254 255 253 253 249 246 245
231 228 229 225 232 235 238 238 236 234 233 244 262 272 273 283 279 284 294 291 290 296 286 281 275 264 258 254 250 251 254 257 258 255 254 251 247 246
239 235 233 231 229 226 233 232 224 227 232 242 258 266 267 275 271 272 278 294 284 270 279 285 282 279 275 259 249 252 256 259 260 258 257 253 250 247
236 238 237 235 232 230 228 226 219 221 228 235 249 252 257 255 261 264 268 283 286 272 266 283 269 273 273 264 261 251 254 258 260 258 254 249 245 243
225 229 239 239 229 235 237 238 245 239 224 223 239 246 251 247 247 259 254 255 260 277 262 275 269 272 277 272 266 258 255 256 258 260 257 253 249 246
225 223 225 238 228 209 218 240 261 263 244 233 234 247 254 250 236 239 246 255 265 261 236 260 274 276 286 281 271 259 260 261 261 262 262 260 256 251
233 224 217 224 220 192 189 223 268 285 284 262 249 258 264 260 233 222 230 244 264 261 227 247 267 280 280 278 283 271 265 264 262 258 257 255 252 248
231 231 221 207 189 177 188 204 240 266 284 302 297 297 291 279 233 225 227 238 255 258 227 226 251 273 283 275 289 295 284 279 271 265 260 251 240 234
215 222 222 191 182 184 188 205 223 237 259 268 279 288 291 287 271 244 230 229 239 250 235 217 240 245 254 282 292 287 288 294 287 278 265 256 238 217
212 211 203 187 191 198 203 213 214 215 225 246 272 283 286 286 285 268 247 243 246 249 242 226 238 244 257 273 281 289 296 294 273 272 285 272 247 236
202 194 190 186 190 201 206 208 197 192 208 244 264 271 274 276 278 280 273 267 270 266 241 239 242 244 248 257 269 279 295 296 278 272 273 262 255 250
170 156 157 169 179 191 205 206 202 205 214 242 261 270 279 279 272 271 272 286 294 298 298 273 254 242 256 262 263 273 281 281 290 285 275 268 264 244
158 141 135 142 177 207 224 239 233 223 231 251 259 269 277 279 284 287 269 263 255 271 295 301 302 274 253 254 264 268 278 288 291 288 280 277 267 256
151 171 202 210 215 224 233 244 245 246 244 246 255 260 266 266 274 298 294 266 264 267 271 287 307 315 303 275 237 259 273 283 294 287 278 273 277 275
156 185 208 217 220 225 230 237 246 248 243 237 248 257 261 264 266 263 262 258 262 270 272 267 258 259 280 289 281 232 262 281 286 287 281 275 274 276
179 197 215 229 230 231 235 241 247 247 242 246 253 257 258 259 261 258 254 247 247 263 275 274 258 246 250 266 278 282 256 264 275 280 288 291 288 280
201 215 223 230 233 236 237 236 238 245 249 252 257 258 259 256 254 253 251 248 241 243 257 273 273 267 262 255 266 283 287 269 264 270 280 287 293 290
210 221 230 228 228 233 236 237 243 250 253 256 260 261 257 253 249 248 245 243 246 246 257 273 282 267 241 246 268 282 293 304 301 283 262 265 272 264
221 226 231 228 228 230 235 238 246 254 256 258 260 258 252 251 249 246 242 240 243 250 265 275 281 268 255 253 265 278 292 305 314 316 312 307 285 283
Height
1551 1551 1551 1552 1552 1551 1551 1551 1551 1549 1547 1547 1547 1547 1547 1546 1546 1545 1544 1544 1543 1543 1542 1542 1541 1541 1540 1540 1539 1539 1539 1539 1539 1538 1538 1538 1538 1538
1548 1548 1548 1548 1548 1548 1548 1548 1548 1547 1545 1544 1544 1544 1544 1543 1543 1542 1542 1541 1540 1540 1539 1539 1538 1537 1537 1536 1536 1536 1535 1535 1535 1535 1535 1534 1534 1534
1544 1544 1544 1545 1545 1545 1545 1545 1544 1544 1542 1541 1541 1541 1540 1540 1539 1539 1538 1538 1537 1537 1536 1535 1535 1534 1533 1533 1532 1532 1532 1532 1531 1531 1531 1531 1530 1530
1541 1541 1541 1541 1542 1541 1541 1541 1541 1540 1539 1538 1538 1537 1537 1536 1536 1535 1534 1534 1533 1533 1532 1532 1531 1531 1530 1529 1529 1529 1528 1528 1527 1527 1527 1526 1526 1526
1537 1537 1537 1538 1538 1538 1538 1538 1537 1537 1536 1535 1534 1533 1533 1533 1532 1531 1530 1530 1529 1529 1528 1528 1527 1527 1526 1526 1525 1525 1524 1524 1523 1523 1523 1522 1522 1522
1533 1533 1534 1534 1534 1534 1534 1534 1533 1533 1532 1531 1530 1530 1529 1529 1528 1527 1526 1526 1525 1525 1524 1524 1523 1523 1522 1522 1521 1521 1520 1520 1519 1519 1518 1518 1518 1517
1528 1529 1530 1530 1530 1530 1530 1530 1529 1529 1528 1528 1527 1526 1526 1525 1525 1524 1523 1522 1521 1521 1520 1520 1519 1518 1518 1517 1517 1516 1516 1516 1515 1515 1514 1514 1513 1513
1524 1525 1525 1526 1526 1526 1526 1526 1526 1525 1525 1524 1523 1522 1522 1521 1521 1520 1519 1518 1517 1517 1516 1515 1515 1514 1514 1513 1513 1512 1512 1511 1511 1510 1510 1509 1508 1508
1520 1520 1521 1521 1522 1522 1522 1522 1521 1521 1521 1521 1519 1518 1518 1517 1517 1516 1515 1514 1513 1513 1512 1511 1511 1509 1509 1508 1508 1508 1507 1507 1506 1505 1505 1504 1504 1504
1515 1516 1517 1517 1517 1517 1517 1517 1517 1517 1516 1516 1515 1514 1514 1513 1513 1512 1511 1511 1510 1509 1509 1507 1506 1505 1505 1504 1504 1503 1503 1502 1501 1501 1500 1500 1499 1499
1511 1511 1512 1512 1513 1513 1513 1513 1513 1512 1512 1511 1511 1510 1510 1509 1509 1508 1507 1506 1505 1504 1504 1503 1502 1501 1500 1500 1499 1499 1498 1498 1497 1496 1495 1495 1495 1494
1506 1507 1507 1508 1508 1508 1508 1508 1508 1508 1508 1507 1506 1506 1506 1505 1504 1503 1502 1502 1500 1500 1499 1499 1498 1497 1495 1495 1495 1494 1494 1493 1492 1492 1491 1490 1490 1490
1501 1502 1503 1504 1504 1504 1504 1504 1503 1504 1503 1503 1502 1501 1501 1500 1499 1498 1498 1497 1496 1496 1496 1495 1494 1493 1493 1491 1490 1490 1489 1488 1488 1487 1487 1486 1486 1485
1496 1497 1498 1499 1499 1499 1500 1499 1500 1499 1499 1498 1497 1496 1495 1495 1494 1493 1493 1492 1492 1491 1491 1491 1490 1489 1488 1487 1486 1485 1485 1484 1483 1483 1482 1482 1481 1481
1491 1492 1493 1493 1494 1495 1495 1495 1495 1495 1495 1494 1493 1492 1491 1490 1489 1489 1488 1488 1487 1487 1486 1486 1486 1485 1484 1483 1482 1481 1480 1479 1479 1478 1477 1477 1476 1475
1487 1487 1488 1489 1489 1490 1490 1491 1491 1491 1490 1489 1488 1488 1487 1486 1485 1484 1483 1483 1482 1482 1482 1481 1481 1481 1480 1479 1478 1477 1476 1475 1474 1474 1473 1472 1471 1470
1482 1482 1483 1484 1484 1485 1485 1486 1486 1486 1485 1485 1484 1483 1482 1481 1480 1479 1478 1478 1477 1476 1476 1477 1477 1476 1476 1475 1474 1473 1472 1471 1470 1469 1468 1467 1466 1465
1478 1478 1478 1479 1480 1480 1481 1481 1481 1482 1481 1480 1480 1479 1478 1476 1475 1475 1474 1473 1472 1472 1472 1472 1472 1471 1471 1470 1470 1469 1468 1467 1466 1465 1463 1462 1460 1460
1474 1474 1475 1475 1475 1476 1476 1477 1477 1477 1476 1476 1475 1475 1474 1472 1471 1470 1470 1468 1468 1468 1468 1468 1467 1467 1466 1464 1464 1465 1464 1463 1461 1460 1458 1457 1456 1455
1469 1470 1470 1471 1471 1472 1472 1472 1472 1472 1472 1471 1471 1470 1469 1468 1467 1466 1465 1464 1463 1463 1463 1463 1463 1462 1462 1461 1460 1459 1460 1459 1457 1455 1454 1452 1451 1450
1465 1466 1466 1467 1467 1468 1468 1468 1468 1467 1467 1467 1466 1465 1464 1463 1462 1461 1460 1460 1459 1459 1458 1458 1458 1458 1458 1458 1456 1454 1454 1455 1453 1451 1449 1448 1446 1444
1461 1462 1463 1463 1463 1463 1463 1463 1462 1462 1462 1462 1461 1460 1459 1458 1457 1456 1456 1455 1454 1454 1453 1453 1453 1453 1453 1453 1451 1450 1449 1449 1448 1447 1446 1444 1442 1439
1458 1458 1459 1459 1459 1458 1458 1458 1458 1457 1457 1456 1456 1455 1454 1453 1452 1452 1451 1451 1450 1449 1449 1448 1448 1449 1448 1448 1447 1446 1445 1444 1443 1441 1440 1439 1438 1436